Regional Weather Roundup
Issued by NWS Albany, NY

Home | Current Version | Previous Version | Graphics & Text | Print | Product List | Glossary On
Versions: 1 2 3 4 5 6 7 8 9 10 11 12 13 14 15 16 17 18 19 20 21 22
000
ASUS41 KALY 292010
RWRALY

NEW YORK STATE HOURLY WEATHER ROUNDUP
NATIONAL WEATHER SERVICE ALBANY NY
400 PM EDT WED OCT 29 2014

NOTE: "FAIR" INDICATES FEW OR NO CLOUDS BELOW 12,000 FEET WITH NO
SIGNIFICANT WEATHER AND/OR NO OBSTRUCTIONS TO VISIBILITY.

NYZ032-033-038>043-046>054-057>066-NYZ062>081-292100-
EAST


CITY           SKY/WX    TMP DP  RH WIND       PRES   REMARKS
ALBANY         LGT RAIN  56  52  86 CALM      29.86R
GLENS FALLS    LGT RAIN  56  47  71 SW7       29.83R
POUGHKEEPSIE   LGT RAIN  58  41  53 W9        29.88R
NEWBURGH       LGT RAIN  54  46  76 NW12G18   29.90R
MONTGOMERY     LGT RAIN  53  49  86 S3        29.88S
WHITE PLAINS   PTSUNNY   62  43  49 NW16G25   29.86R
ISLIP          CLOUDY    70  55  59 W13       29.80R
NEW YORK CITY  CLOUDY    65  45  48 NW20      29.86R
CENTRAL PARK   CLOUDY    65  41  41 MISG      29.90R
$$

NYZ005>009-017-018-044>046-055-056-292100-
CENTRAL


CITY           SKY/WX    TMP DP  RH WIND       PRES   REMARKS
FULTON         CLOUDY    54  38  54 SW10G17   29.88F
SYRACUSE       CLOUDY    52  39  61 SW9       29.90R
ROME           CLOUDY    50  40  68 W7        29.90S
ELMIRA         CLOUDY    55  40  56 W8        29.89S
BINGHAMTON     CLOUDY    52  38  58 W8        29.88S
MONTICELLO     CLOUDY    48  46  93 W8        29.90R
$$

NYZ026>034-041>043-292100-
NORTH


CITY           SKY/WX    TMP DP  RH WIND       PRES   REMARKS
WATERTOWN      CLOUDY    56  38  50 W16G23    29.85S
FORT DRUM      NOT AVBL
MASSENA        CLOUDY    53  37  54 SW13G23   29.81R
SARANAC LAKE   CLOUDY    45  36  70 SW8       29.81S
PLATTSBURGH    CLOUDY    54  38  54 VRB5      29.81S
$$

NYZ001>004-010>016-019>021-292100-
WEST


CITY           SKY/WX    TMP DP  RH WIND       PRES   REMARKS
NIAGARA FALLS  PTSUNNY   52  35  52 W16G24    29.88R
BUFFALO        PTSUNNY   53  37  54 W18G24    29.88R
DUNKIRK        CLOUDY    52  40  63 SW16G28   29.92R
JAMESTOWN      CLOUDY    48  36  61 W10G21    29.93R
WELLSVILLE     MOSUNNY   49  34  56 W8        29.91R
ROCHESTER      CLOUDY    54  43  66 SW18      29.88S
PENN YAN       CLOUDY    53  39  59 W10       29.90S
$$

             KEY
       WCI = WIND CHILL INDEX
       VSB = VISIBILITY
       HX  = HEAT INDEX
$$



USA.gov is the U.S. government's official web portal to all federal, state and local government web resources and services.